Wind_Speed
18 19 19 19 19 18 18 18 17 16 18 19 20 22 23 24 25 26 27 28 27 27 28 29 30 31 31 32 34 35 34 34 35 35 34 35 35 36 37 37 37 39 39 39
18 19 19 19 18 16 16 15 15 15 16 17 19 20 20 22 24 25 26 26 26 25 27 27 28 30 31 32 32 33 35 34 34 35 35 36 36 36 37 37 37 38 39 38
18 18 19 18 16 16 15 15 14 13 14 15 17 19 21 21 23 24 24 25 25 26 26 28 29 29 29 30 31 32 33 33 34 35 35 36 35 35 36 36 36 37 38 38
18 17 18 18 16 15 14 14 14 14 14 15 16 19 19 20 21 23 23 24 24 25 26 27 29 30 29 29 30 31 32 34 35 36 36 36 35 35 35 36 36 35 36 38
18 18 18 17 15 15 14 14 15 15 16 16 18 19 19 19 20 21 22 21 21 23 25 26 28 29 29 28 28 29 30 32 33 35 35 35 35 35 35 35 36 36 36 37
18 18 17 16 16 15 14 14 15 16 17 17 18 19 19 19 20 22 22 21 21 23 24 26 27 29 29 29 28 29 30 31 32 33 34 35 34 34 34 35 35 35 36 37
17 17 16 15 15 14 14 15 15 17 17 17 17 19 19 18 19 21 22 22 22 23 24 26 27 28 29 28 28 28 30 30 31 32 32 34 34 33 33 35 36 36 37 37
17 15 15 14 14 15 14 14 16 17 17 17 17 19 18 17 17 19 20 21 22 23 23 24 26 27 29 28 28 28 29 29 30 31 32 34 34 34 34 34 35 35 36 36
17 16 14 14 13 14 14 14 15 17 18 18 17 18 18 18 18 18 19 20 22 22 22 22 24 26 27 27 26 26 27 29 30 31 32 33 33 33 33 33 33 33 35 36
18 17 15 14 14 14 14 15 15 17 18 19 19 19 19 18 18 18 19 20 21 21 21 21 22 23 25 26 26 26 26 28 29 31 31 32 33 33 32 32 32 32 34 36
18 17 15 15 14 15 15 15 16 18 18 19 19 18 18 17 17 18 18 19 19 19 20 21 21 23 24 25 26 26 25 26 28 29 31 30 31 32 31 31 31 31 32 34
17 17 16 16 16 16 16 17 17 18 18 18 19 19 18 18 17 18 19 19 19 20 20 21 21 22 23 24 24 25 25 25 26 27 29 31 30 30 30 30 31 31 32 32
17 17 17 17 16 17 17 17 17 17 18 18 18 18 18 18 18 19 19 19 19 20 21 21 21 21 22 23 24 24 24 24 25 26 26 28 29 30 30 30 30 30 31 32
18 17 17 17 17 17 17 17 17 18 19 18 17 17 17 18 19 20 19 18 19 19 20 21 21 21 21 23 24 24 24 23 24 25 25 25 27 29 29 29 30 30 30 31
20 19 18 18 18 18 18 17 18 19 19 19 18 18 18 18 19 19 19 18 18 19 19 20 21 22 22 22 23 23 23 23 23 24 24 24 26 28 28 28 29 29 30 31
20 20 20 19 19 20 19 19 19 20 20 20 20 19 19 19 19 19 19 19 19 19 19 19 19 20 22 22 23 24 23 22 23 23 24 24 25 26 27 27 28 27 28 29
21 22 22 21 21 21 20 20 20 20 20 20 20 19 19 19 20 20 20 20 20 20 20 20 20 21 22 22 23 24 24 23 23 24 24 25 26 26 26 26 26 27 27 28
22 22 23 23 22 22 21 21 21 21 20 20 21 21 21 20 20 21 21 21 20 20 21 21 20 20 20 21 23 23 24 24 24 24 25 26 26 26 26 27 27 27 28 28
22 22 22 22 23 23 22 21 21 21 20 20 21 21 22 22 22 21 21 21 21 21 20 21 21 20 21 21 22 24 24 24 25 25 25 26 26 26 26 27 27 27 27 27
22 23 23 23 23 23 22 22 21 22 21 20 21 21 20 21 21 20 21 21 22 21 21 21 21 21 21 22 23 24 25 25 26 26 26 27 27 26 26 27 27 27 27 27
23 24 24 24 23 22 22 22 22 22 21 21 21 21 21 20 20 20 20 20 21 21 21 21 21 21 22 23 23 24 25 26 27 27 27 27 27 27 28 28 28 28 29 29
23 24 24 23 23 22 22 22 22 22 21 21 21 22 22 21 21 20 20 21 21 22 22 21 22 22 22 23 23 24 24 25 26 27 28 28 28 29 29 29 29 29 30 30
24 24 24 23 22 22 22 23 22 22 22 22 22 22 23 22 21 20 20 21 21 21 22 22 22 22 23 23 24 24 25 25 25 26 27 28 28 29 29 29 29 30 30 30
23 23 23 22 21 21 21 22 22 22 22 22 22 23 23 22 22 22 21 22 22 22 22 23 23 23 23 23 24 24 25 25 25 25 26 27 27 28 29 29 30 30 31 31
22 23 23 22 21 20 20 21 22 22 23 23 23 23 23 23 23 23 22 23 23 23 23 24 24 24 24 24 24 25 25 26 26 26 26 26 27 27 28 29 30 30 31 31
21 22 23 22 22 22 21 22 23 23 23 23 23 23 23 23 23 23 23 23 23 23 24 25 25 26 26 26 26 26 27 27 28 28 27 28 28 29 29 29 29 30 32 32
Wind_Direction
306 306 306 306 305 300 293 282 270 262 261 258 252 244 244 241 239 238 239 242 245 248 247 247 247 248 251 253 252 249 251 250 248 247 249 248 247 247 246 247 247 247 247 248
308 307 307 306 305 302 293 286 277 266 261 260 253 243 247 245 242 239 239 242 247 248 247 249 249 251 253 253 253 252 251 251 248 247 249 247 246 247 247 247 248 248 247 248
310 311 307 306 303 301 293 288 279 270 260 256 253 245 249 248 246 244 244 242 247 251 252 251 251 252 254 254 253 253 254 252 251 248 249 248 247 247 247 248 249 250 249 248
313 312 308 306 303 303 296 287 276 270 266 258 257 254 253 255 250 249 248 246 248 252 254 252 255 254 254 253 252 253 255 253 251 250 250 248 248 248 249 249 250 251 250 249
314 315 312 309 303 302 300 290 279 273 267 261 259 259 255 255 254 252 249 250 253 253 257 254 253 253 253 251 252 251 253 252 250 250 248 248 249 250 250 249 250 252 251 249
313 313 311 310 304 303 301 297 286 278 269 265 264 265 261 262 260 256 255 256 258 257 258 257 255 253 252 251 253 253 254 253 251 250 248 247 249 250 250 250 250 253 252 250
314 311 309 306 300 298 301 300 293 282 274 273 270 268 267 267 265 262 260 261 263 264 260 258 256 254 253 253 254 255 255 254 252 250 249 248 248 249 249 250 252 254 254 252
315 313 310 308 305 304 303 302 297 290 285 280 273 272 272 268 266 266 266 265 264 265 261 261 258 257 255 255 255 256 256 253 253 250 250 250 248 248 250 252 253 254 254 254
314 313 308 305 306 304 304 302 300 296 292 287 279 275 270 270 270 271 270 264 264 265 264 262 259 255 255 256 257 257 255 253 252 251 252 252 250 249 252 255 256 257 257 257
310 310 306 301 301 302 300 298 296 298 295 289 285 280 274 271 273 273 271 267 266 265 264 262 260 256 255 258 259 259 258 254 254 252 253 254 253 252 254 255 257 259 259 258
308 306 302 298 297 299 299 295 294 296 295 290 286 282 277 277 278 278 275 272 271 267 263 262 260 258 257 259 259 260 259 257 257 255 253 254 255 255 256 258 259 261 263 262
306 304 297 297 296 297 299 296 296 295 295 291 287 286 281 279 280 279 278 274 273 270 267 266 264 262 262 262 260 261 261 258 258 259 255 255 257 258 258 259 261 263 264 266
303 302 297 293 293 293 295 295 293 291 291 291 289 289 287 283 281 281 280 276 273 271 270 271 269 266 265 265 263 263 262 261 261 261 258 256 256 260 262 261 263 266 267 266
296 298 297 296 294 294 293 292 290 288 288 290 290 290 287 285 282 280 280 278 275 272 270 269 268 267 266 265 264 263 263 262 262 262 261 260 259 260 263 264 267 268 267 266
294 295 294 292 292 290 289 286 285 285 285 287 289 287 287 285 284 282 279 276 274 272 270 270 269 267 266 265 263 263 264 262 262 260 259 259 261 263 265 267 267 268 268 267
295 295 292 291 290 289 287 284 282 284 284 285 286 285 284 280 282 282 278 275 272 272 271 271 272 269 267 266 264 264 266 265 263 261 259 262 264 266 267 268 268 268 267 267
296 296 293 290 289 289 288 289 288 286 284 285 286 286 283 282 282 282 279 276 273 271 270 270 271 270 268 268 267 265 265 266 266 264 261 263 266 266 267 268 268 268 268 268
295 297 295 293 291 289 292 290 290 288 286 284 282 281 281 282 281 280 279 276 272 270 269 269 270 270 269 268 267 266 266 265 265 266 265 266 266 265 268 268 269 270 268 268
294 295 296 297 295 293 291 291 290 288 286 283 282 281 281 281 280 278 276 274 271 269 268 268 269 269 269 269 267 265 264 264 264 265 266 267 266 265 267 267 269 268 268 269
295 295 295 296 297 297 295 292 289 287 285 283 282 282 284 283 281 278 274 273 270 267 266 267 268 268 269 270 270 268 263 262 263 265 266 267 267 267 266 267 269 271 272 273
295 294 293 293 294 295 296 295 291 287 285 282 280 280 282 283 282 280 276 272 269 267 266 267 269 269 270 271 272 268 264 262 263 264 266 267 267 268 269 271 273 274 275 276
295 295 294 292 291 293 295 295 292 288 283 282 282 282 282 282 282 280 278 276 273 270 266 267 268 270 272 273 274 271 269 267 267 266 267 268 268 269 272 273 274 275 276 276
295 296 293 291 291 291 292 292 291 287 284 283 283 283 283 282 282 279 278 276 275 276 272 269 269 270 273 274 274 272 271 271 270 269 269 269 269 270 271 272 274 276 277 278
295 295 294 293 292 291 290 289 288 287 285 284 283 283 283 283 281 279 277 276 275 276 275 273 272 272 274 275 276 276 274 272 273 274 272 272 271 271 271 273 275 277 278 279
296 296 295 294 292 291 289 288 287 285 286 287 286 284 282 282 281 279 277 275 275 276 276 275 275 274 275 277 276 275 275 274 274 275 274 272 272 272 273 275 277 279 280 282
296 296 295 295 294 292 289 289 288 288 287 288 288 286 284 283 280 278 278 277 276 275 276 277 275 275 275 276 277 277 276 275 275 276 275 274 274 273 275 277 277 278 280 281
Height
5714 5712 5708 5705 5702 5699 5696 5695 5695 5694 5693 5693 5694 5696 5696 5698 5700 5703 5705 5707 5710 5712 5714 5715 5717 5718 5720 5721 5722 5723 5724 5725 5727 5729 5731 5733 5735 5738 5741 5744 5747 5750 5753 5756
5711 5708 5704 5701 5698 5695 5693 5691 5691 5691 5690 5689 5690 5691 5692 5693 5695 5697 5699 5702 5704 5706 5707 5708 5709 5711 5712 5714 5714 5715 5716 5718 5719 5721 5723 5725 5728 5730 5733 5736 5738 5741 5744 5747
5706 5704 5699 5697 5694 5692 5690 5688 5688 5687 5687 5686 5686 5687 5688 5689 5689 5691 5693 5695 5697 5699 5700 5702 5703 5704 5705 5706 5707 5708 5709 5710 5711 5713 5715 5717 5720 5723 5726 5728 5731 5733 5736 5739
5703 5699 5696 5693 5691 5688 5687 5685 5684 5683 5683 5683 5683 5683 5685 5684 5685 5686 5687 5689 5691 5692 5693 5694 5695 5697 5697 5698 5699 5700 5701 5703 5704 5705 5707 5710 5712 5715 5717 5720 5723 5725 5727 5729
5698 5695 5692 5690 5687 5685 5683 5682 5681 5680 5680 5680 5679 5679 5681 5680 5681 5681 5682 5684 5685 5686 5687 5687 5688 5689 5690 5691 5692 5693 5694 5695 5696 5698 5700 5702 5705 5707 5709 5712 5715 5717 5719 5721
5695 5691 5688 5686 5684 5682 5680 5679 5678 5676 5676 5676 5676 5675 5676 5676 5676 5676 5677 5678 5679 5680 5680 5681 5682 5683 5683 5684 5685 5686 5687 5688 5689 5691 5693 5695 5698 5700 5702 5704 5707 5709 5710 5713
5691 5688 5685 5683 5681 5679 5677 5676 5674 5671 5671 5672 5671 5670 5672 5672 5672 5671 5672 5673 5673 5673 5674 5674 5675 5676 5677 5677 5678 5679 5680 5681 5683 5684 5686 5688 5690 5692 5694 5697 5698 5700 5702 5704
5687 5685 5682 5679 5677 5675 5673 5672 5670 5668 5667 5667 5667 5665 5668 5667 5667 5666 5666 5666 5666 5667 5667 5667 5668 5668 5669 5670 5671 5672 5673 5675 5676 5677 5679 5681 5682 5684 5686 5688 5690 5692 5693 5695
5682 5681 5678 5676 5674 5672 5670 5668 5667 5665 5662 5662 5661 5661 5662 5662 5662 5661 5661 5661 5661 5661 5661 5661 5661 5662 5662 5663 5664 5665 5666 5668 5669 5670 5671 5673 5675 5676 5678 5680 5682 5683 5684 5685
5678 5677 5675 5673 5671 5669 5667 5665 5663 5661 5658 5656 5656 5657 5658 5657 5657 5657 5656 5655 5655 5655 5654 5654 5655 5656 5656 5657 5658 5658 5659 5660 5662 5663 5664 5665 5667 5669 5670 5671 5673 5674 5675 5675
5674 5673 5671 5669 5667 5665 5664 5662 5659 5657 5654 5652 5650 5654 5653 5651 5651 5650 5650 5649 5649 5649 5648 5649 5649 5649 5650 5651 5652 5652 5653 5653 5654 5655 5656 5658 5659 5661 5662 5663 5664 5665 5665 5666
5670 5668 5666 5665 5663 5661 5659 5658 5656 5654 5651 5648 5646 5650 5648 5647 5645 5644 5644 5643 5643 5643 5643 5643 5643 5644 5644 5645 5645 5646 5647 5647 5648 5648 5649 5650 5652 5653 5654 5655 5655 5656 5656 5657
5665 5664 5662 5661 5661 5659 5656 5654 5651 5649 5647 5644 5643 5646 5643 5642 5641 5640 5639 5638 5638 5637 5637 5637 5637 5638 5638 5639 5639 5640 5640 5641 5641 5642 5642 5643 5645 5646 5646 5647 5647 5647 5647 5648
5661 5659 5658 5656 5654 5652 5651 5649 5647 5644 5642 5640 5639 5639 5638 5636 5635 5634 5634 5633 5632 5631 5631 5632 5632 5632 5632 5633 5633 5634 5634 5635 5635 5635 5635 5636 5637 5638 5638 5639 5639 5639 5639 5640
5656 5654 5652 5650 5648 5647 5645 5644 5642 5640 5638 5636 5635 5633 5633 5631 5630 5628 5628 5627 5626 5626 5626 5626 5625 5626 5626 5626 5627 5627 5628 5628 5628 5628 5629 5629 5630 5631 5631 5631 5631 5631 5631 5632
5650 5649 5647 5646 5644 5641 5640 5638 5636 5635 5633 5631 5630 5629 5627 5625 5624 5623 5622 5621 5621 5621 5620 5620 5620 5619 5620 5620 5621 5621 5621 5622 5622 5622 5622 5623 5623 5623 5624 5624 5623 5623 5623 5624
5645 5643 5641 5640 5638 5635 5635 5633 5631 5629 5628 5626 5624 5624 5621 5620 5619 5617 5616 5616 5615 5615 5615 5614 5614 5613 5613 5614 5614 5615 5615 5615 5615 5615 5615 5616 5616 5616 5616 5616 5616 5615 5615 5615
5640 5637 5635 5633 5632 5630 5632 5627 5625 5623 5622 5620 5618 5617 5615 5614 5613 5612 5611 5610 5609 5609 5609 5609 5608 5607 5607 5607 5608 5608 5608 5608 5608 5608 5608 5608 5608 5608 5608 5608 5608 5607 5607 5607
5634 5632 5629 5627 5624 5623 5624 5621 5618 5616 5615 5614 5612 5611 5609 5608 5607 5606 5605 5603 5603 5603 5603 5602 5602 5601 5601 5601 5601 5601 5601 5601 5601 5600 5601 5601 5600 5600 5601 5601 5600 5600 5599 5599
5628 5626 5624 5621 5618 5617 5618 5615 5611 5610 5609 5608 5606 5604 5602 5601 5601 5601 5599 5597 5597 5596 5596 5595 5595 5594 5594 5594 5593 5593 5593 5593 5593 5592 5593 5593 5593 5593 5593 5593 5592 5591 5591 5591
5622 5619 5617 5614 5611 5610 5610 5607 5605 5604 5604 5601 5599 5597 5596 5595 5594 5593 5592 5591 5590 5590 5589 5588 5588 5587 5587 5587 5586 5585 5585 5585 5585 5585 5584 5584 5584 5584 5584 5584 5584 5583 5583 5582
5615 5612 5610 5608 5605 5607 5603 5600 5599 5597 5595 5594 5592 5591 5589 5588 5587 5586 5585 5584 5583 5583 5582 5581 5580 5580 5580 5579 5579 5578 5577 5577 5577 5576 5576 5576 5576 5576 5575 5575 5575 5574 5574 5573
5608 5606 5603 5602 5602 5599 5596 5594 5591 5590 5588 5587 5586 5584 5583 5581 5580 5579 5579 5578 5577 5576 5575 5574 5574 5573 5572 5572 5571 5570 5569 5569 5568 5568 5568 5567 5567 5567 5567 5566 5566 5565 5565 5564
5601 5599 5596 5595 5594 5592 5589 5587 5585 5583 5582 5580 5579 5578 5576 5575 5574 5573 5572 5571 5570 5569 5568 5567 5567 5566 5565 5564 5563 5563 5562 5561 5561 5560 5560 5559 5558 5558 5558 5557 5557 5556 5555 5554
5594 5591 5589 5587 5586 5584 5582 5580 5578 5577 5575 5574 5572 5571 5569 5568 5567 5566 5565 5564 5563 5562 5561 5560 5559 5559 5558 5557 5556 5555 5554 5553 5553 5552 5551 5551 5550 5549 5549 5548 5547 5546 5546 5544
5588 5585 5582 5581 5579 5577 5575 5573 5571 5570 5568 5567 5565 5564 5562 5561 5560 5559 5557 5557 5556 5555 5554 5553 5552 5551 5550 5549 5548 5547 5546 5545 5545 5544 5543 5542 5541 5541 5540 5539 5538 5537 5536 5535